Starlink 32908

operational
NORAD ID: 63084 Int'l Des: 2025-037 Owner: SPXS Country: US Constellation: starlink
LEOCIRCULAR

关于 Starlink 32908

正在加载描述...

实时位置

正在加载3D地球...

即将过境

高度历史

Altitude vs Time

uPlot chart will show altitude changes over time

两行轨道根数

1 63084U 25037H 25352.98515931 .00002868 00000-0 24801-3 0 9998
2 63084 69.9999 197.9203 0002531 267.4234 92.6635 14.98333849 46377
Epoch: Dec 18, 2025 • Age: 19 hours

当前状态

高度 582.5 km
速度 7.57 km/s
星下点 -32.19°S, 27.22°E
发射日期 Feb 23, 2025
运行时间 0.8 years
类型 internet

技术详情

分类 Payload
质量 730.00 kg
干质量 700.00 kg
总质量 730.00 kg
长度 0.30 m
直径 4.10 m
跨度 29.00 m
形状 Box + pan
制造商 SPXS
平台类型 Starlink V2M
阶段状态 In Orbit
所有者/国家 SPXS/US

大型星座

Loading constellations...